Oxford, CT

3:14 AM EDT on April 20, 2018 (GMT -0400)
Waterbury-Oxford

Weather History for KOXC - January, 2013

Change the Weather History Date:

Tuesday, January 15, 2013

  Actual Average Record
Temperature  
Mean Temperature 32 °F -  
Max Temperature 35 °F 28 °F 46 °F (2014)
Min Temperature 30 °F 16 °F 0 °F (2004)
Degree Days  
Heating Degree Days 32    
Moisture  
Dew Point 22 °F    
Average Humidity 65    
Maximum Humidity 75    
Minimum Humidity 56    
Precipitation  
Precipitation 0.02 in - - ()
Sea Level Pressure  
Sea Level Pressure 30.26 in    
Wind  
Wind Speed 7 mph (North)    
Max Wind Speed 13 mph    
Max Gust Speed 16 mph    
Visibility 10 miles    
Events      
Averages and records for this station are not official NWS values.
T = Trace of Precipitation, MM = Missing Value Source: NWS Daily Summary

Daily Weather History Graph

Daily Weather History Graph

Search for Another Location

Airport or City:

Astronomy

Jan. 15, 2013 Rise Set
Actual Time 7:16 AM EST 4:48 PM EST
Civil Twilight 6:45 AM EST 5:18 PM EST
Nautical Twilight 6:11 AM EST 5:52 PM EST
Astronomical Twilight 5:38 AM EST 6:25 PM EST
Moon 9:17 AM EST (1/15) 9:39 PM EST (1/15)
Length of Visible Light 10h 32m
Length of Day
9h 31m
Waxing Crescent, 19% of the Moon is Illuminated
Jan 15
Waxing Crescent
Jan 18
First Quarter
Jan 26
Full
Feb 3
Last Quarter
Feb 10
New

Hourly Weather History & Observations

Time (EST) Temp. Windchill Dew Point Humidity Pressure Visibility Wind Dir Wind Speed Gust Speed Precip Events Conditions
12:35 AM 33.8 °F 27.0 °F 24.8 °F 70% 30.27 in 10.0 mi NNW 8.1 mph - N/A   Overcast
12:55 AM 33.8 °F 28.6 °F 24.8 °F 70% 30.26 in 10.0 mi North 5.8 mph - N/A   Overcast
1:15 AM 33.8 °F 25.8 °F 23.0 °F 65% 30.28 in 10.0 mi North 10.4 mph - N/A   Overcast
1:35 AM 33.8 °F 24.8 °F 24.8 °F 70% 30.25 in 10.0 mi North 12.7 mph - 0.01 in   Overcast
1:55 AM 33.8 °F 28.6 °F 24.8 °F 70% 30.24 in 9.0 mi NNE 5.8 mph - 0.01 in   Overcast
2:15 AM 32.0 °F 23.0 °F 24.8 °F 75% 30.28 in 10.0 mi North 11.5 mph 16.1 mph N/A   Overcast
2:55 AM 32.0 °F - 24.8 °F 75% 30.25 in 10.0 mi Calm Calm - N/A   Overcast
3:15 AM 32.0 °F 27.5 °F 24.8 °F 75% 30.24 in 10.0 mi North 4.6 mph - 0.01 in   Overcast
4:15 AM 32.0 °F 24.8 °F 24.8 °F 75% 30.23 in 10.0 mi North 8.1 mph - N/A   Overcast
4:35 AM 32.0 °F 25.6 °F 24.8 °F 75% 30.23 in 10.0 mi North 6.9 mph - N/A   Overcast
5:15 AM 32.0 °F 26.4 °F 24.8 °F 75% 30.23 in 10.0 mi North 5.8 mph - N/A   Overcast
5:45 AM 32.0 °F 28.7 °F 24.8 °F 75% 30.24 in 10.0 mi NNW 3.5 mph - N/A   Overcast
5:55 AM 32.0 °F 28.7 °F 24.8 °F 75% 30.25 in 10.0 mi NNW 3.5 mph - N/A   Overcast
7:45 AM 30.2 °F 21.3 °F 21.2 °F 69% 30.29 in 10.0 mi North 10.4 mph - N/A   Partly Cloudy
8:45 AM 30.2 °F 22.6 °F 21.2 °F 69% 30.32 in 10.0 mi North 8.1 mph - N/A   Mostly Cloudy
10:45 AM 33.8 °F 27.7 °F 21.2 °F 60% 30.30 in 10.0 mi North 6.9 mph - N/A   Partly Cloudy
11:45 AM 33.8 °F - 23.0 °F 65% 30.30 in 10.0 mi Calm Calm - N/A   Scattered Clouds
12:45 PM 35.6 °F 29.9 °F 23.0 °F 60% 30.28 in 10.0 mi North 6.9 mph - N/A   Scattered Clouds
1:45 PM 35.6 °F 28.6 °F 23.0 °F 60% 30.26 in 10.0 mi North 9.2 mph - N/A   Clear
2:45 PM 35.6 °F 28.6 °F 21.2 °F 56% 30.26 in 10.0 mi NNE 9.2 mph - N/A   Scattered Clouds
3:46 PM 35.6 °F 30.7 °F 21.2 °F 56% 30.26 in 10.0 mi North 5.8 mph - N/A   Clear
4:45 PM 33.8 °F 29.6 °F 21.2 °F 60% 30.27 in 10.0 mi North 4.6 mph - N/A   Mostly Cloudy
5:45 PM 33.8 °F 29.6 °F 21.2 °F 60% 30.27 in 10.0 mi North 4.6 mph - N/A   Clear
6:45 PM 33.8 °F 27.7 °F 21.2 °F 60% 30.27 in 10.0 mi North 6.9 mph - N/A   Overcast
7:45 PM 33.8 °F 27.0 °F 21.2 °F 60% 30.26 in 10.0 mi NNE 8.1 mph - N/A   Overcast
8:55 PM 33.8 °F 27.7 °F 21.2 °F 60% 30.25 in 10.0 mi North 6.9 mph - N/A   Overcast
9:15 PM 33.8 °F 29.6 °F 21.2 °F 60% 30.25 in 10.0 mi NNE 4.6 mph - N/A   Overcast
9:55 PM 33.8 °F 27.7 °F 21.2 °F 60% 30.24 in 10.0 mi North 6.9 mph - N/A   Overcast
10:15 PM 33.8 °F 29.6 °F 19.4 °F 56% 30.24 in 10.0 mi North 4.6 mph - N/A   Overcast
10:35 PM 33.8 °F 29.6 °F 19.4 °F 56% 30.22 in 10.0 mi NE 4.6 mph - N/A   Overcast
10:55 PM 33.8 °F 30.8 °F 19.4 °F 56% 30.23 in 10.0 mi NNE 3.5 mph - N/A   Overcast
11:15 PM 33.8 °F 30.8 °F 19.4 °F 56% 30.23 in 10.0 mi NNE 3.5 mph - N/A   Overcast
11:35 PM 33.8 °F 29.6 °F 19.4 °F 56% 30.22 in 10.0 mi NNE 4.6 mph - N/A   Overcast